Find Starlink 30252

NORAD ID: 57607 Int'l Des: 2023-119 Owner: SPXS Country: US Constellation: starlink operational
LEOCIRCULAR

現在のビュー

3D地球を読み込み中...

About Starlink 30252

Starlink 30252 (NORAD 57607) is a starlink constellation satellite (v2 mini) launched Aug 11, 2023 by SPXS of US. It operates in LEO, CIRCULAR orbit with a mass of 730.00 kg.

Starlink 30252について

説明を読み込み中...

次回通過

Passes for default location (London). Set your location on the main map for personalized predictions.

高度履歴

Loading altitude history...

軌道要素

1 57607U 23119F 26170.57066460 .00000688 00000-0 34529-4 0 9990
2 57607 43.0033 211.2733 0001864 278.5672 81.4968 15.27579765158841
Epoch: Jun 19, 2026 • Age: 20 hours

現在のステータス

高度 495.1 km
速度 7.62 km/s
衛星直下点 -43.07°S, 66.76°E
打ち上げ日 Aug 11, 2023
運用期間 2.8 years
タイプ internet

技術仕様

分類 Payload
質量 730.00 kg
乾燥質量 700.00 kg
総質量 730.00 kg
長さ 0.30 m
直径 4.10 m
スパン 29.00 m
形状 Box + pan
製造者 SPXS
バスタイプ Starlink V2M
フェーズステータス In Orbit
所有者/国 SPXS/US

Most Searched